SL-14 DEB

基本信息
目录编号:
45334
目录名称:
SL-14 DEB
国际标识:
1991-056BY
轨道中心:
EARTH
物体状态:
在轨
发射日期:
1991-08-15 UTC
轨道信息
数据来源: 国际轨道数据
星历时间: 2026-09-12T04:30:40+0800
半长轴: 7537.196km
偏心率: 0.0046951
轨道倾角: 82.554°
近地点辐角: 121.809°
升交点赤经: 50.838°
平近点角: 238.762°
近地点: 1123.671km
远地点: 1194.447km
周期: 108.536分钟
每日圈数: 13.267468
详细信息
发射场:
PKMTR
轨道高度:
LEO
数据来源:
AOE Integration Group
参考系:
TEME
时间系统:
UTC
历元类型:
SGP4
2D轨道图
3D轨道图
轨道高度分析图
轨道倾角分析图
轨道综合分析图
查看轨道综合分析图